Airfield :
LOGIN :

Register | Disclaimer

   EN    FR    IT 

 










Legend :    VFR   Marginal VFR   IFR   Intensive IFR   Very Intensive IFR
Visi :
Ceiling :
>= 8 km
>= 3000ft
5 to 8 km
1000 to 3000 ft
1500m to 5 km
500 to 1000 ft
800 to 1500m
200 to 500 ft
< 800m
< 200 ft
Symbols :   Thunderstorms  Fog  Heavy snow  Heavy precipitations  Wind > 20 kt
SIGMETs :     Misc.  Thunderstorms  Icing  Turbulence  Mountain Waves  Volcanic Ashes







- Airport Elevation : 919 ft
- IATA code : IFO


UKLI - Ivano Frankivs'k

CURRENT METAR :
  • 152100Z 22002MPS CAVOK M01/M01 Q1030 R28/190068 NOSIG

EXPIRED METARs :
  • 152030Z 00000MPS 7000 NSC M01/M01 Q1031 R28/190068 NOSIG
  • 152000Z 21002MPS 6000 NSC M01/M01 Q1031 R28/190068 NOSIG

TAF TAF UKLI
Valid from the 15 at 18:00 until the 16 at 03:00 UTC


151705Z 1518/1603 VRB01MPS 3000 BR BKN020 TXM0/1518Z TNM05/1603Z
TEMPO 1518/1603 1200 BR BKN012
No reported NOTAMs for that airfield.



MET'MAP, your aeronautical weather chart ! - Copyright ORBIFLY December 2007 - Disclaimer

ORBIFLY MET'MAP TEAM :

Programming & Development : Alexandra Zaïnal
Concept & Development : Baudouin d'Aumeries
Co-Development & Prog : Marc-Olivier Méhu
Technical & hardware support : Manuel Goepfert

Contact : metmap@orbifly.com




SOURCES & CREDITS :

   NOAA